Location: Unspecified
(0.0000°N, 0.0000°E)
Time: 11:15:54
(UTC+00:00)

A-11 Canister half - Pass Details

Date: 23 November 2019
Orbit: 1515 x 1685 km, 47.2° (Epoch: 13 December)

Event Time Altitude Azimuth Distance (km) Brightness Sun altitude
Rises 03:28:43 0° 289° (WNW) 4,822 - -32.0°
Reaches altitude 10° 03:32:52 10° 274° (W) 3,808 - -31.0°
Exits shadow 03:39:27 22° 230° (SW) 2,953 10.2 -29.5°
Maximum altitude 03:39:41 22° 228° (SW) 2,951 10.2 -29.5°
Drops below altitude 10° 03:46:25 10° 182° (S) 3,722 11.2 -27.9°
Sets 03:50:28 0° 166° (SSE) 4,685 12.0 -27.0°
